VENTA 1
1 42791U 17036AC 20156.15715534 .00001214 00000-0 53592-4 0 9991
2 42791 097.3021 210.9262 0012660 076.0685 284.1959 15.23567618163761
Robusta 1B
1 42792U 17036AD 20156.66402603 .00001236 00000-0 54180-4 0 9996
2 42792 97.3025 211.6237 0012580 74.4559 285.8066 15.23771453163872
D-SAT
1 42794U 17036AF 20156.62664726 .00000282 00000-0 29506-4 0 9994
2 42794 97.4942 189.9174 0127401 48.3772 312.8277 14.91275249160784
TechnoSat
1 42829U 17042E 20156.66705369 .00000097 00000-0 15070-4 0 9998
2 42829 97.5218 39.0467 0013488 333.7510 26.3024 14.91098589157389
QIKCOM-1
1 42983U 98067NF 20156.82837738 .00003651 00000-0 47870-4 0 9991
2 42983 51.6394 9.1413 0003706 20.2859 339.8282 15.61481195148319
AO-91
1 43017U 17073E 20156.73790725 .00000534 00000-0 46219-4 0 9995
2 43017 97.7238 69.4648 0258550 91.7724 271.3118 14.78921948137282
EcAMSat
1 43019U 98067NG 20156.81046482 .00007732 00000-0 79213-4 0 9999
2 43019 51.6410 355.6020 0003409 8.4619 351.6434 15.66078266230818
PICSAT
1 43132U 18004X 20156.25187090 .00001228 00000-0 52978-4 0 9990
2 43132 97.4474 227.6732 0011299 99.2067 261.0449 15.24390588133046
AO-92
1 43137U 18004AC 20156.48468004 .00000965 00000-0 42613-4 0 9999
2 43137 97.4461 227.7330 0010888 100.1413 260.1053 15.24103343133066
TianYi 2
1 43155U 18008A 20156.83782855 .00000433 00000-0 29161-4 0 9998
2 43155 97.4466 226.2498 0017194 186.3622 282.2785 15.11617693131019
Zhou Enlai
1 43156U 18008B 20156.85656530 .00001232 00000-0 77027-4 0 9993
2 43156 97.4514 226.1194 0014538 184.1513 242.2186 15.11166222130972
TianYi 6
1 43158U 18008D 20156.75383938 .00000940 00000-0 60466-4 0 9997
2 43158 97.4447 225.0930 0013262 183.5180 328.2391 15.10699329130905
S-Net G
1 43186U 18014G 20156.74685173 .00000329 00000-0 33752-4 0 9999
2 43186 97.6949 64.7917 0009551 266.5171 93.4959 14.96803112127790
S-Net H
1 43187U 18014H 20156.74667373 .00000325 00000-0 33417-4 0 9996
2 43187 97.6946 64.7703 0009549 266.4463 93.5666 14.96802984127793
S-Net J
1 43188U 18014J 20156.67969082 .00000308 00000-0 31987-4 0 9992
2 43188 97.6950 64.7336 0009559 266.8420 93.1708 14.96802672127785
S-Net K
1 43189U 18014K 20156.74695795 .00000333 00000-0 34175-4 0 9998
2 43189 97.6946 64.7660 0009535 266.4192 93.5939 14.96802192126345
FMN 1
1 43192U 18015A 20156.87289990 .00002222 00000-0 90073-4 0 9991
2 43192 97.4408 286.4232 0017035 130.2830 350.1829 15.25579622129984
Shaonian Xing
1 43199U 18015H 20156.86782951 .00001653 00000-0 67380-4 0 9994
2 43199 97.4185 284.7238 0017907 139.7889 341.0878 15.25745964130042
1KUNS-PF
1 43466U 98067NP 20156.67350821 .00766343 35938-3 58290-3 0 9996
2 43466 51.6201 317.0927 0011495 299.9291 60.0583 16.14376350118480
UBAKUSAT
1 43467U 98067NQ 20156.79064641 .00026887 00000-0 18130-3 0 9992
2 43467 51.6334 346.8811 0000076 271.1097 88.9893 15.74905712118117
EnduroSat One
1 43551U 98067NZ 20155.90192138 .00051153 00000-0 26638-3 0 9997
2 43551 51.6341 349.1541 0001901 66.9961 293.1241 15.80401932108234
EQUISat
1 43552U 98067PA 20156.78577154 .00026281 00000-0 18596-3 0 9998
2 43552 51.6366 353.7149 0003684 62.1714 297.9657 15.73794642108217
UiTMSat 1
1 43589U 98067PD 20156.00734193 .00038255 00000-0 23970-3 0 9997
2 43589 51.6355 355.8307 0003226 85.1902 274.9466 15.76397679103850
Maya 1
1 43590U 98067PE 20156.76081760 .00035504 00000-0 22233-3 0 9992
2 43590 51.6315 351.8629 0002956 79.8189 280.3144 15.76449216103902
Bhutan 1
1 43591U 98067PF 20156.54441619 .00035934 00000-0 22362-3 0 9992
2 43591 051.6371 352.7403 0003251 085.2148 274.9223 15.76584871103870
SiriusSat 1
1 43595U 98067PG 20156.76817415 .00029671 00000-0 20660-3 0 9991
2 43595 51.6324 356.4489 0001164 49.5235 310.5866 15.74103106103021
SiriusSat 2
1 43596U 98067PH 20156.82906883 .00029842 00000-0 20873-3 0 9993
2 43596 51.6339 356.9294 0001489 41.0009 319.1102 15.73994115103028
Tanusha-3
1 43597U 98067PJ 20156.43512497 .00076371 00000-0 32889-3 0 9994
2 43597 051.6290 346.5427 0000531 245.0419 115.0529 15.84316207103125
SurfSat
1 43614U 18070B 20156.14237104 .00002826 00000-0 72799-4 0 9996
2 43614 93.0194 149.0862 0016943 37.8930 322.3513 15.39133206 96433
CP-7 DAVE
1 43615U 18070C 20156.49766729 .00002625 00000-0 67946-4 0 9990
2 43615 093.0195 149.2243 0017005 036.1976 324.0426 15.38992961096489
ELFIN-B
1 43616U 18070D 20156.67932868 .00004081 00000-0 10100-3 0 9997
2 43616 93.0154 149.2377 0017480 37.0986 323.1474 15.40320968 96557
ELFIN-A
1 43617U 18070E 20156.06456304 .00004366 00000-0 10750-3 0 9994
2 43617 93.0207 149.4843 0016805 36.7690 323.4714 15.40490642 96462
STARS-Me Mother
1 43640U 98067PQ 20156.72371300 .00012014 00000-0 12277-3 0 9994
2 43640 51.6358 12.8034 0003367 355.5746 4.5219 15.65507443 94733
CubeBel 1
1 43666U 18083E 20156.85293145 .00001108 00000-0 57332-4 0 9990
2 43666 97.4900 183.4432 0016215 48.4910 76.6670 15.18241065 88700
Changshagaoxin
1 43669U 18083H 20156.81640888 .00000720 00000-0 39489-4 0 9991
2 43669 97.4774 181.6381 0012016 44.6771 315.5428 15.17278852 88612
Ten-Koh
1 43677U 18084G 20156.32953027 .00000171 00000-0 23424-4 0 9991
2 43677 097.8812 273.4240 0015606 196.7666 163.3038 14.90285991086988
PO-101
1 43678U 18084H 20156.86283433 -.00000223 00000-0 -16447-4 0 9995
2 43678 97.8819 275.2674 0009071 212.6620 147.4027 14.91629491 87142
IRVINE 01
1 43693U 18088D 20156.74422197 .00002691 00000-0 11293-3 0 9997
2 43693 85.0360 85.4253 0017309 346.6619 13.4163 15.22832286 86912
QO-100
1 43700U 18090A 20156.41229979 .00000140 00000-0 00000-0 0 9994
2 43700 000.0154 316.9501 0001535 135.3716 335.2341 01.00273531005571
Reaktor Hello World
1 43743U 18096AA 20156.26051015 .00001193 00000-0 47115-4 0 9995
2 43743 97.4213 230.2009 0018202 169.4560 190.7065 15.27382468 84386
MinXSS-2
1 43758U 18099A 20156.75417338 .00000745 00000-0 72095-4 0 9999
2 43758 97.7068 228.9016 0014376 227.3729 132.6280 14.95661726 82051
AO-95
1 43770U 18099N 20156.18912725 .00000025 00000-0 75695-5 0 9991
2 43770 97.7059 227.8005 0013345 238.1158 121.8764 14.94981337 81937
RANGE-B
1 43772U 18099Q 20156.74643754 .00000771 00000-0 75386-4 0 9992
2 43772 97.7127 228.8424 0013171 221.3644 138.6580 14.95169761 82014
RANGE-A
1 43773U 18099R 20156.71506582 -.00000211 00000-0 -14075-4 0 9996
2 43773 97.7003 227.9683 0012546 222.1408 137.8849 14.94962728 82008
MOVE-II
1 43780U 18099Y 20156.74398822 .00000866 00000-0 83550-4 0 9991
2 43780 97.7063 228.5473 0012313 232.2385 127.7721 14.95390267 82016
SNUSat 2
1 43782U 18099AA 20156.15277129 .00000653 00000-0 64511-4 0 9994
2 43782 097.7057 227.9716 0011645 222.4800 137.5521 14.95252459081931
SnugLite
1 43784U 18099AC 20156.72425802 .00000072 00000-0 11708-4 0 9997
2 43784 97.7021 228.3634 0014007 230.3999 129.5986 14.95346877 82036
ITASat 1
1 43786U 18099AE 20156.45672646 -.00000035 00000-0 20401-5 0 9990
2 43786 097.7075 228.4736 0014105 230.5040 129.4935 14.95321587081997
EAGLET 1
1 43790U 18099AJ 20156.71962063 -.00000184 00000-0 -11295-4 0 9995
2 43790 97.7064 228.9814 0012367 234.3521 125.6549 14.95702734 81745
ESEO
1 43792U 18099AL 20156.72908304 .00000003 00000-0 54757-5 0 9995
2 43792 97.7036 228.8212 0012213 230.6376 129.3764 14.95595668 81807
CSIM
1 43793U 18099AM 20156.44307741 .00000007 00000-0 58094-5 0 9995
2 43793 097.7035 228.5137 0011856 227.9615 132.0598 14.96040399081743
